Wind_Speed
35 34 31 32 34 34 33 33 32 31 33 34 33 31 30 30 30 31 32 32 32 32 32 32 33 34 35 35 36 37 38 38 39 40 41 42 42 42 43 43 44 45 46 47
37 35 34 36 36 37 37 37 36 35 35 35 34 33 31 30 30 31 31 32 32 32 32 33 34 35 37 38 39 40 41 42 43 44 45 47 48 48 49 49 49 50 50 51
39 38 37 38 39 40 39 38 37 37 36 35 36 35 31 31 32 33 33 33 33 34 34 35 36 38 39 41 42 43 44 46 47 48 49 51 52 53 54 54 54 54 55 55
42 41 41 41 40 40 40 37 37 37 37 37 37 38 34 33 34 35 35 35 36 36 37 38 40 41 43 45 46 48 49 50 51 51 52 54 56 57 58 58 58 59 59 59
42 42 41 41 39 39 39 37 37 38 39 40 39 40 39 37 36 36 37 38 39 39 41 42 44 46 47 49 51 52 54 55 55 56 57 58 59 60 62 62 62 62 63 63
42 41 40 39 38 39 39 38 39 40 41 43 39 41 43 42 41 40 40 41 41 42 44 46 48 50 52 54 55 56 58 59 59 60 60 61 62 63 64 65 66 66 67 67
41 40 39 38 38 39 39 39 41 42 44 45 43 45 46 46 45 44 44 44 45 46 48 50 53 55 57 58 59 61 62 63 63 64 64 64 64 65 66 67 68 69 70 71
40 39 39 39 39 40 40 41 42 44 47 48 48 50 49 49 48 46 46 47 48 49 51 54 57 59 61 62 63 64 65 66 66 67 67 66 66 67 68 69 70 71 72 73
41 41 40 40 40 42 43 43 43 46 49 51 52 52 52 52 50 49 49 50 51 52 55 58 60 62 63 64 65 66 67 67 68 68 68 68 68 68 69 70 71 73 74 76
43 44 43 43 44 44 44 45 46 48 51 54 55 55 56 55 53 52 52 53 54 56 58 61 63 64 66 67 68 69 69 69 69 69 69 69 69 70 71 72 74 75 77 79
44 45 46 46 46 45 46 48 49 50 53 55 58 59 60 58 56 56 55 55 57 59 61 63 65 66 68 69 70 70 70 70 70 69 70 70 71 72 74 75 77 79 82 84
46 48 50 50 50 50 50 49 49 51 53 56 61 63 61 58 56 56 56 58 61 62 64 66 67 68 69 69 70 71 71 71 71 71 72 72 74 75 77 79 81 83 85 87
49 52 53 55 55 53 52 51 51 52 56 60 62 63 59 56 56 57 59 61 63 65 67 68 69 70 70 70 70 70 71 71 72 73 74 75 77 78 80 82 84 85 87 88
55 57 58 58 56 56 57 57 56 58 61 62 62 59 56 57 57 59 62 65 67 68 69 70 70 70 69 69 69 70 71 72 73 75 76 77 79 81 82 84 85 86 87 88
60 61 61 60 59 60 60 60 61 62 61 61 60 58 56 58 60 62 65 67 68 69 70 70 69 69 69 69 69 70 71 73 75 77 78 79 80 82 83 84 85 86 86 84
61 63 62 62 60 59 61 64 64 62 61 61 61 61 58 60 63 65 67 68 69 69 69 69 68 67 68 69 70 72 73 75 77 78 79 80 81 83 83 83 83 80 77 73
62 62 61 61 60 60 67 65 63 63 62 62 63 62 61 64 65 67 68 69 69 69 68 67 67 67 68 70 72 73 74 76 77 78 80 81 82 81 80 77 74 70 67 64
62 60 60 61 61 66 66 64 65 64 62 63 64 63 64 67 69 69 69 69 69 68 67 66 67 69 70 72 73 74 76 77 78 79 80 80 78 75 72 69 66 64 62 62
59 59 61 62 65 68 66 67 66 66 66 65 65 65 67 69 70 69 68 68 68 67 68 69 70 71 72 73 75 76 78 78 79 78 77 74 71 67 65 63 62 62 62 63
59 60 63 65 68 71 69 68 67 68 71 67 67 68 69 69 69 67 68 68 68 68 69 70 71 72 73 75 77 78 78 78 76 73 69 66 64 62 62 61 62 62 63 64
62 64 65 67 70 73 72 70 68 69 69 68 69 68 68 67 66 66 67 67 67 68 70 71 73 74 75 76 77 77 75 72 68 65 62 61 61 60 60 61 62 62 63 64
66 67 69 69 71 72 67 66 66 68 69 67 66 66 66 65 65 66 66 67 69 71 72 74 75 76 76 75 73 71 67 64 61 59 59 59 59 59 59 60 61 63 64 65
69 69 68 68 69 67 66 64 64 65 66 66 65 65 64 65 65 67 68 70 72 73 74 75 76 75 72 69 66 63 60 59 58 58 58 58 59 59 60 61 62 64 65 65
67 65 65 65 63 62 62 62 64 65 65 64 64 64 65 66 68 69 70 71 72 73 73 72 70 67 63 60 58 57 57 56 57 57 58 59 60 60 61 62 63 63 63 64
61 61 61 59 56 58 60 62 63 65 65 64 65 66 68 69 69 70 70 70 69 67 65 63 60 57 55 54 54 54 55 56 57 58 59 60 60 61 61 61 62 62 62 62
56 55 55 55 56 60 62 63 64 65 64 65 66 67 68 68 68 67 65 63 60 58 56 54 53 52 51 51 52 53 54 55 57 58 59 60 60 60 60 60 59 59 58 58
Wind_Direction
271 272 274 272 273 279 283 284 284 282 279 278 279 280 280 281 283 284 286 287 288 289 290 290 290 290 289 289 289 288 288 287 286 285 284 283 281 280 278 276 274 272 271 271
270 271 271 271 275 278 281 283 284 282 280 280 281 281 282 284 284 285 286 287 288 289 289 288 288 287 287 287 286 285 285 285 285 284 283 282 280 278 276 275 273 272 270 269
270 271 271 272 274 276 278 280 280 280 280 281 282 283 285 287 287 287 288 289 290 290 289 288 288 287 287 286 285 285 284 284 283 282 281 280 279 278 276 274 272 271 269 268
269 271 271 271 273 274 274 275 275 277 279 280 283 287 289 287 287 289 290 292 292 291 290 289 288 287 286 285 285 284 283 283 282 280 279 278 277 276 275 274 272 271 269 268
270 269 269 270 271 270 271 272 273 275 277 280 284 288 290 289 290 291 292 292 291 290 289 288 287 287 286 285 284 284 283 283 281 279 277 276 275 274 273 273 272 271 270 270
268 267 267 267 267 268 270 271 272 274 277 280 284 285 288 290 290 290 290 290 289 287 287 287 287 287 286 285 284 284 283 283 282 280 278 277 275 274 273 273 273 273 272 272
265 265 265 265 266 268 269 270 271 274 278 281 282 282 285 288 290 291 291 291 290 289 288 288 288 288 287 286 285 285 284 283 282 281 280 279 277 275 275 274 274 274 274 275
262 262 263 264 265 266 267 268 271 275 278 280 282 283 286 288 289 290 290 290 290 289 288 288 287 287 286 286 285 284 284 283 282 281 280 279 278 277 276 276 276 276 277 277
261 261 262 263 264 265 267 269 272 273 276 279 281 285 287 289 289 290 290 290 289 288 287 286 285 285 285 284 284 283 282 281 281 280 280 280 279 279 279 279 280 280 280 280
259 261 263 263 264 266 268 270 270 272 275 278 282 285 287 286 287 289 288 288 287 286 285 284 284 284 284 284 283 283 283 282 282 282 282 282 282 282 282 283 283 284 284 284
259 261 264 265 265 266 267 268 270 272 274 278 282 284 286 288 290 290 289 289 287 285 284 283 284 284 284 284 284 284 284 284 284 284 284 284 284 285 285 286 286 286 286 286
260 262 265 267 267 267 268 270 271 273 276 277 279 283 287 288 289 288 288 287 286 285 285 285 285 286 285 285 285 285 285 285 285 285 286 286 287 287 288 288 288 288 288 287
259 262 265 267 268 269 269 271 271 272 273 274 278 285 289 287 287 287 286 285 285 284 285 286 286 286 286 285 285 285 285 285 286 287 287 288 289 289 289 289 289 289 288 287
260 261 264 267 269 270 270 272 274 274 274 277 280 284 286 286 287 286 285 284 284 285 286 286 286 286 286 285 286 286 286 287 288 289 289 290 290 290 290 290 289 289 288 288
259 261 263 265 267 269 272 275 276 276 278 279 284 285 286 286 284 283 282 283 284 284 284 285 285 286 286 286 286 287 288 288 289 290 290 291 291 291 291 291 291 291 290 290
258 261 263 265 267 270 272 275 276 279 281 282 284 285 286 283 282 282 283 283 283 284 284 285 286 286 286 286 287 288 288 289 290 291 291 292 292 293 293 293 292 292 291 291
258 262 265 268 270 271 272 279 280 280 280 282 284 286 283 281 281 282 282 283 283 284 284 285 285 285 285 286 287 288 289 290 291 293 293 294 294 293 293 293 292 292 291 290
260 263 266 269 270 270 279 279 278 280 282 283 283 282 282 282 282 282 283 283 283 284 284 284 284 285 286 287 288 290 291 293 294 294 294 294 294 293 293 293 292 292 291 291
263 266 268 269 270 274 277 280 282 282 281 281 281 281 280 280 281 282 283 282 283 283 284 284 285 287 288 290 291 292 293 294 294 294 294 293 293 293 293 293 293 293 292 292
265 266 268 269 271 274 279 280 281 281 280 282 280 278 279 280 282 283 282 283 284 284 285 287 288 290 291 292 293 293 294 294 293 293 293 292 292 293 293 293 293 293 293 293
264 265 267 269 273 277 281 283 283 280 281 280 278 279 280 281 281 282 283 284 285 286 287 289 290 291 292 293 293 293 293 292 292 291 291 291 292 292 292 292 293 293 294 294
264 265 269 274 277 281 283 281 279 279 279 279 279 280 281 282 283 284 285 286 287 289 290 291 292 292 293 292 292 291 291 291 290 291 291 291 292 292 292 293 294 294 295 296
266 270 274 277 280 281 281 279 277 276 277 278 280 281 282 283 284 285 286 288 289 291 291 292 292 292 292 291 290 289 290 290 291 291 292 292 292 293 293 294 295 296 296 297
271 274 277 280 282 280 278 276 275 276 277 279 282 283 284 285 286 287 289 290 291 291 291 291 291 291 290 289 289 289 291 292 292 293 293 293 294 294 295 295 296 296 297 297
276 278 280 280 278 275 274 274 275 277 279 282 283 284 286 288 289 290 290 291 292 292 292 291 290 290 289 289 290 291 292 293 293 294 294 294 295 295 295 296 296 296 297 298
279 281 278 275 272 271 273 275 277 279 282 283 284 286 288 289 290 291 292 294 293 293 291 290 289 289 290 291 292 293 294 294 295 295 295 295 295 296 296 296 296 297 297 297
Height
5815 5817 5819 5819 5817 5817 5818 5817 5818 5818 5816 5814 5814 5815 5816 5815 5815 5814 5812 5812 5811 5810 5809 5808 5807 5806 5805 5804 5803 5802 5801 5799 5797 5795 5793 5791 5789 5788 5786 5784 5782 5780 5778 5777
5808 5809 5811 5810 5810 5810 5809 5809 5809 5809 5807 5806 5806 5807 5808 5808 5807 5806 5805 5804 5803 5802 5801 5800 5799 5798 5797 5796 5794 5793 5792 5790 5788 5786 5784 5782 5779 5777 5775 5773 5771 5769 5767 5765
5798 5801 5802 5802 5802 5802 5801 5801 5800 5799 5798 5798 5797 5798 5801 5800 5798 5797 5796 5795 5795 5794 5793 5791 5790 5789 5787 5786 5784 5783 5781 5779 5777 5775 5773 5771 5768 5766 5763 5760 5758 5756 5754 5751
5789 5792 5792 5792 5793 5793 5792 5792 5791 5790 5789 5789 5789 5788 5791 5791 5789 5788 5788 5786 5785 5784 5783 5781 5780 5778 5777 5775 5773 5771 5769 5767 5765 5763 5761 5758 5756 5753 5749 5747 5744 5742 5739 5737
5781 5782 5782 5783 5784 5783 5783 5783 5783 5781 5780 5779 5780 5779 5780 5780 5780 5779 5778 5777 5775 5774 5773 5771 5769 5767 5765 5762 5760 5758 5756 5754 5751 5749 5746 5744 5741 5738 5734 5732 5729 5726 5724 5721
5771 5771 5772 5773 5774 5774 5773 5774 5772 5771 5770 5770 5773 5770 5769 5769 5770 5769 5768 5767 5765 5763 5761 5759 5756 5753 5751 5748 5746 5744 5741 5739 5736 5733 5731 5728 5725 5722 5719 5716 5713 5710 5707 5704
5760 5761 5762 5763 5763 5764 5764 5764 5763 5762 5761 5762 5762 5760 5760 5759 5758 5758 5756 5754 5752 5749 5747 5744 5741 5738 5735 5733 5730 5727 5725 5722 5719 5717 5714 5711 5708 5705 5702 5699 5696 5693 5689 5687
5749 5751 5752 5753 5754 5753 5753 5754 5755 5754 5751 5751 5750 5749 5751 5749 5748 5746 5744 5742 5739 5736 5733 5730 5726 5723 5720 5717 5714 5711 5708 5705 5702 5699 5696 5693 5691 5688 5685 5682 5679 5675 5672 5668
5738 5739 5741 5742 5743 5743 5742 5743 5744 5742 5740 5740 5739 5739 5739 5736 5735 5734 5732 5729 5727 5723 5719 5715 5712 5708 5705 5702 5698 5695 5691 5688 5685 5682 5679 5676 5673 5670 5667 5664 5660 5657 5654 5650
5726 5728 5730 5731 5731 5731 5733 5733 5731 5730 5728 5727 5728 5728 5727 5725 5723 5722 5720 5717 5713 5710 5705 5701 5697 5694 5690 5686 5682 5678 5674 5671 5668 5665 5661 5658 5655 5652 5649 5645 5642 5638 5634 5631
5715 5716 5718 5719 5719 5721 5721 5721 5719 5718 5716 5715 5714 5717 5712 5712 5710 5708 5705 5702 5697 5693 5689 5685 5682 5678 5674 5670 5665 5661 5657 5654 5650 5647 5644 5641 5637 5634 5630 5626 5622 5618 5613 5609
5702 5703 5703 5705 5706 5706 5708 5709 5708 5706 5704 5701 5698 5703 5701 5700 5697 5693 5690 5686 5681 5677 5673 5669 5666 5662 5658 5653 5648 5644 5640 5636 5632 5629 5626 5622 5618 5614 5609 5605 5600 5596 5591 5585
5689 5689 5690 5690 5693 5694 5695 5695 5694 5691 5688 5684 5683 5689 5688 5686 5681 5679 5674 5669 5665 5661 5658 5654 5650 5645 5641 5636 5631 5627 5622 5618 5614 5610 5606 5602 5597 5592 5587 5582 5577 5572 5567 5561
5674 5675 5676 5679 5680 5680 5680 5681 5679 5676 5672 5670 5671 5674 5673 5669 5666 5662 5657 5652 5648 5645 5642 5638 5633 5628 5624 5619 5614 5609 5604 5600 5595 5591 5586 5582 5577 5571 5565 5559 5554 5548 5542 5536
5658 5659 5661 5663 5664 5663 5665 5666 5663 5658 5657 5655 5657 5658 5659 5653 5649 5644 5640 5636 5633 5630 5626 5621 5616 5611 5607 5601 5596 5591 5586 5581 5576 5571 5567 5561 5555 5549 5543 5536 5530 5523 5517 5511
5642 5644 5645 5646 5648 5647 5649 5650 5646 5644 5643 5641 5640 5641 5643 5635 5629 5626 5623 5619 5616 5612 5608 5603 5599 5594 5589 5584 5579 5574 5569 5562 5557 5552 5546 5540 5533 5526 5519 5513 5506 5500 5494 5488
5629 5629 5629 5630 5631 5628 5630 5637 5633 5630 5629 5628 5624 5626 5621 5616 5613 5609 5606 5602 5598 5594 5590 5586 5582 5577 5572 5567 5561 5556 5550 5543 5537 5531 5524 5517 5510 5503 5497 5490 5484 5479 5474 5469
5615 5615 5613 5613 5613 5609 5621 5621 5616 5613 5614 5611 5606 5604 5601 5597 5594 5591 5588 5585 5580 5576 5573 5569 5564 5560 5555 5549 5542 5536 5530 5523 5516 5509 5502 5494 5487 5481 5476 5470 5465 5460 5456 5452
5601 5600 5598 5596 5593 5593 5602 5602 5600 5595 5594 5594 5588 5586 5582 5578 5575 5575 5571 5566 5563 5560 5556 5551 5546 5541 5535 5529 5521 5515 5509 5502 5495 5488 5481 5474 5467 5462 5457 5452 5448 5443 5439 5435
5586 5585 5583 5579 5576 5576 5587 5586 5581 5575 5572 5579 5571 5566 5563 5561 5560 5560 5552 5549 5546 5541 5536 5531 5526 5521 5516 5508 5501 5495 5489 5482 5475 5468 5461 5455 5450 5445 5441 5436 5431 5426 5422 5417
5571 5568 5566 5563 5558 5559 5566 5565 5561 5555 5555 5555 5552 5549 5547 5545 5543 5540 5535 5532 5527 5523 5518 5512 5507 5502 5496 5488 5481 5474 5468 5462 5456 5450 5444 5439 5434 5430 5425 5421 5415 5410 5405 5400
5554 5552 5551 5548 5542 5547 5547 5542 5540 5535 5532 5532 5532 5530 5529 5528 5525 5521 5517 5513 5509 5504 5499 5493 5487 5482 5476 5468 5460 5454 5449 5444 5439 5434 5429 5424 5419 5414 5410 5405 5399 5393 5387 5382
5536 5537 5535 5532 5531 5528 5525 5522 5518 5514 5513 5513 5513 5512 5511 5509 5507 5503 5499 5495 5490 5485 5480 5473 5466 5462 5456 5449 5441 5436 5432 5427 5423 5418 5413 5408 5403 5398 5393 5388 5383 5376 5370 5365
5518 5519 5518 5516 5515 5509 5504 5500 5497 5495 5495 5495 5495 5494 5492 5490 5488 5485 5481 5477 5472 5466 5460 5453 5447 5442 5437 5431 5425 5421 5416 5412 5407 5402 5397 5392 5387 5382 5377 5371 5366 5360 5354 5348
5504 5504 5502 5499 5497 5490 5484 5481 5479 5477 5478 5479 5478 5476 5473 5470 5468 5465 5462 5459 5453 5447 5440 5434 5429 5424 5420 5415 5410 5406 5401 5396 5391 5386 5381 5376 5371 5366 5360 5355 5349 5343 5338 5331
5492 5491 5485 5481 5477 5470 5467 5465 5462 5461 5462 5461 5459 5458 5456 5452 5448 5445 5442 5439 5434 5429 5424 5418 5413 5409 5405 5400 5396 5391 5386 5381 5376 5371 5365 5360 5354 5349 5344 5339 5334 5327 5322 5316